Orbital Elements at Epoch 2459200.5 (2020-Dec-17.0) TDB
Reference: JPL 31 (heliocentric ecliptic J2000)
Element | Value | Uncertainty (1-sigma) | Units |
e | .071220156826953 | 1.9385e-08 | |
a | 2.38997467578992 | 8.7809e-09 | au |
q | 2.219760304567715 | 4.4959e-08 | au |
i | 3.498182926405633 | 1.1875e-06 | deg |
node | 80.42072268453914 | 7.5232e-06 | deg |
peri | 239.3890275940527 | 1.6532e-05 | deg |
M | 233.6120019291968 | 1.6006e-05 | deg |
tp | 2459674.296348946352 (2022-Apr-04.79634895) | 6.0694e-05 | TDB |
period | 1349.548123431265 3.69 | 7.4374e-06 2.036e-08 | d yr |
n | .2667559561230685 | 1.4701e-09 | deg/d |
Q | 2.560189047012124 | 9.4062e-09 | au |
|
| | Orbit Determination Parameters
Additional Information
|